This demonstration page uses our WeatherBlox Daily Observations layout. Learn more.

Left ArrowRight Arrow

Hourly Observations for August 23, 2015

Temp ( °F °C ) Dew Point ( °F °C ) Humidity (%) Winds ( mph kmh ) Pressure ( in mb ) Visibility ( mi km ) Precip ( " mm )
12:51 am 00:51 Clear 79 26.1 54 12.2 42 42 Calm 29.84 1011 10 16 0.00 0.00
1:51 am 01:51 Clear 77 25 55 12.8 47 47 NW 10 17 29.82 1010 10 16 0.00 0.00
2:51 am 02:51 Clear 77 25 56 13.3 48 48 WNW 7 11 29.83 1010 10 16 0.00 0.00
3:51 am 03:51 Clear 72 22.2 60 15.6 66 66 SW 5 7 29.85 1011 10 16 0.00 0.00
4:51 am 04:51 Clear 71 21.7 62 16.7 73 73 WNW 7 11 29.85 1011 10 16 0.00 0.00
5:51 am 05:51 Sunny 73 22.8 62 16.7 69 69 Calm 29.89 1012 10 16 0.00 0.00
6:51 am 06:51 Sunny 73 22.8 61 16.1 66 66 S 3 6 29.93 1014 10 16 0.00 0.00
7:51 am 07:51 Sunny 75 23.9 59 15 58 58 Calm 29.93 1014 10 16 0.00 0.00
8:51 am 08:51 Sunny 83 28.3 56 13.3 40 40 NNW 8 13 29.92 1013 10 16 0.00 0.00
9:51 am 09:51 Sunny 85 29.4 55 12.8 36 36 Calm 29.92 1013 10 16 0.00 0.00
10:51 am 10:51 Sunny 88 31.1 55 12.8 33 33 WNW 10 17 29.90 1012 10 16 0.00 0.00
11:51 am 11:51 Sunny 90 32.2 55 12.8 31 31 W 8 13 29.88 1012 10 16 0.00 0.00
12:51 pm 12:51 Sunny 93 33.9 50 10 23 23 ESE 5 7 29.86 1011 10 16 0.00 0.00
1:51 pm 13:51 Sunny 96 35.6 48 8.9 19 19 SW 9 15 29.82 1010 10 16 0.00 0.00
2:51 pm 14:51 Mostly Sunny 98 36.7 51 10.6 20 20 VRB 7 11 29.79 1009 10 16 0.00 0.00
3:51 pm 15:51 Sunny 98 36.7 50 10 20 20 WSW 8 13 29.78 1008 10 16 0.00 0.00
4:20 pm 16:20 Partly Cloudy with Nearby Thunderstorms 98 36.7 49 9.4 19 19 N 5 7 29.65 1004 10 16 0.00 0.00
4:49 pm 16:49 Sunny 97 36 48 9 19 19 N 5 7 29.65 1004 10 16 0.00 0.00
4:51 pm 16:51 Sunny with Nearby Thunderstorms 97 36.1 49 9.4 20 20 N 5 7 29.78 1008 10 16 0.00 0.00
5:36 pm 17:36 Mostly Cloudy 98 36.7 49 9.4 19 19 ENE 14 22 29.65 1004 10 16 0.00 0.00
5:51 pm 17:51 Cloudy with Nearby Thunderstorms 90 32.2 57 13.9 33 33 NE 22 35 29.81 1009 10 16 0.00 0.00
5:58 pm 17:58 Cloudy with Thunderstorms 89 31.7 57 13.9 34 34 NE 23 37 29.71 1006 10 16 0.00 0.00
6:20 pm 18:20 Partly Cloudy with Nearby Thunderstorms 86 30 56 13.3 36 36 NE 21 33 29.77 1008 10 16 0.00 0.00
6:51 pm 18:51 Mostly Cloudy 87 30.6 52 11.1 30 30 N 24 39 29.83 1010 10 16 0.00 0.00
7:51 pm 19:51 Partly Cloudy 87 30.6 54 12.2 32 32 ESE 3 6 29.88 1012 10 16 0.00 0.03
8:51 pm 20:51 Clear 84 28.9 57 13.9 40 40 N 7 11 29.89 1012 10 16 0.00 0.00
9:51 pm 21:51 Clear 84 28.9 56 13.3 38 38 SSW 6 9 29.91 1013 10 16 0.00 0.00
10:51 pm 22:51 Clear 80 26.7 58 14.4 47 47 SSE 12 19 29.94 1014 10 16 0.00 0.00
11:51 pm 23:51 Clear 77 25 60 15.6 56 56 SSE 9 15 29.96 1014 10 16 0.00 0.00

Powered by AerisWeather